cubair logo

For once you have tasted flight you will walk the earth with your eyes turned skywards,
for there you have been and there you will long to return.


"Leonardo da Vinci"

Welcome To CubAir Flight!

Cub Air Flight was founded in 2006, by Steve and Sharon Krog. Cub Air Flight school uses vintage Piper J3 Cub aircraft to instruct in, following a philosophy that “old school is still cool.” Cub Air Flight believes that these fine classic airplanes make better pilots by requiring more attention and flying skill than newer airplanes. We at Cub Air Flight hold that flying a vintage airplane is as much an art as it is a science.

The Piper J3 Cub is revered among aviators as a truly classic and iconic airplane. It has served as a trainer to more pilots than almost any airplane, earning a reputation as easy to fly but yet challenging enough to force students to continually better themselves. Cub Air uses two J3 Cubs, restored and maintained with the same attention to detail as a lovingly restored classic car. Cub Air also uses a Piper Cherokee for training requiring an aircraft with more advanced instruments.

Come fly with us and feel the freedom of
flying, the way it's supposed to be!


"Old School Is Still Cool!"

 

Our Instructors

Steve Krog
John Palese

Find Us Here!

Hartford Municipal

Airport (KHXF)

4200 Highway U

Hartford, WI 53027

Our Staff

Steve Krog
Sharon Krog
Jamie Weber
Luke Lachendro
Chris Hibben

Oshkosh Weather

[Source: ADDS]
METAR
KOSH 242353Z 15011KT 10SM OVC044 08/M06 A2996 RMK AO2 SLP153 T00781061 10139 20078 53000 =
TAF

West Bend Weather

[Source: ADDS]
METAR
KETB 242350Z AUTO 09003KT 10SM -RA SCT044 BKN060 OVC065 03/00 A2997 RMK AO2 =
TAF

Juneau Weather

[Source: ADDS]
METAR
KUNU 242355Z AUTO 10009KT 7SM RA BKN039 OVC055 04/02 A2997 RMK AO2 LTG DSNT SW P0002 60005 T00400017 10133 20040 =
TAF

Fond Du Lac Weather

[Source: ADDS]
METAR
KFLD 242353Z AUTO 16012KT 10SM BKN048 OVC060 07/M04 A2996 RMK AO2 SLP152 60000 T00721039 10139 20072 55000 =
TAF